DW5321 Paradera AW current weather conditions

sailwx.info

Wind from 077 at 4 knots gusting 7

Air temperature 25.6° C
Dewpoint 25.2° C

Last reported at 2016-Dec-10 07:51 UTC.
Time now 2016-Dec-10 08:54 UTC

Location: N 12°33' W 070°00'.
View on Google Maps.

See reports from other nearby stations

  
Tides and Currents Weather Stations Pressure Air Temp Water Temp Dewpoint Dewpoint Depression Visibility Wind Speed Wind Dir Waves Ship Positions
date/time (UTC)wind fromknots sea level pressurealtimeterstation pressurevisibilityair tempwater tempwave heightnotes
2016-Dec-10 07:51 077 4 gusting 7 25.6
2016-Dec-10 07:36 046 6 gusting 12 26.1
2016-Dec-10 07:21 086 5 gusting 9 26.7
2016-Dec-10 07:06 101 6 gusting 11 26.7
2016-Dec-10 06:51 086 4 gusting 12 26.7
2016-Dec-10 06:36 114 6 gusting 12 26.7
2016-Dec-10 06:21 081 5 gusting 11 27.2
2016-Dec-10 06:06 120 6 gusting 11 26.7
2016-Dec-10 05:51 129 6 gusting 16 27.2
2016-Dec-10 05:36 089 6 gusting 13 27.2
2016-Dec-10 05:21 080 6 gusting 11 27.2
2016-Dec-10 05:06 101 6 gusting 13 27.2
2016-Dec-10 04:51 068 5 gusting 13 27.2
2016-Dec-10 04:35 056 7 gusting 14 27.2
2016-Dec-10 04:21 049 6 gusting 9 27.2
2016-Dec-10 04:05 101 6 gusting 13 27.2
2016-Dec-10 03:50 081 6 gusting 13 27.2
2016-Dec-10 03:35 081 6 gusting 17 27.2
2016-Dec-10 03:21 094 5 gusting 13 26.7
2016-Dec-10 03:05 077 6 gusting 13 26.7
2016-Dec-10 02:50 047 6 gusting 12 26.7
2016-Dec-10 02:35 097 6 gusting 14 26.7
2016-Dec-10 02:20 082 8 gusting 13 26.7
2016-Dec-10 02:05 066 5 gusting 12 26.7
2016-Dec-10 01:50 103 6 gusting 12 26.1
2016-Dec-10 01:35 083 4 gusting 13 26.1
2016-Dec-10 01:20 075 6 gusting 11 26.1
2016-Dec-10 01:05 104 5 gusting 9 25.6
2016-Dec-10 00:50 075 6 gusting 16 25.6
2016-Dec-10 00:35 103 6 gusting 15 25.6
2016-Dec-10 00:20 068 9 gusting 16 25.6
2016-Dec-10 00:05 114 8 gusting 17 25.6
2016-Dec-09 23:50 086 9 gusting 18 25.6
2016-Dec-09 23:35 057 6 gusting 16 25.0
2016-Dec-09 23:20 071 9 gusting 18 25.0
2016-Dec-09 23:05 084 9 gusting 17 25.6
2016-Dec-09 22:50 070 6 gusting 17 25.6
2016-Dec-09 22:35 079 6 gusting 14 25.6
2016-Dec-09 22:20 072 6 gusting 14 25.6
2016-Dec-09 22:05 068 6 gusting 10 25.6
2016-Dec-09 21:50 051 6 gusting 10 25.0
2016-Dec-09 21:35 061 5 gusting 11 25.0
2016-Dec-09 21:21 072 5 gusting 11 25.0
2016-Dec-09 21:05 034 6 gusting 12 25.0
2016-Dec-09 20:50 063 8 gusting 14 25.0
2016-Dec-09 20:35 090 6 gusting 11 25.6
2016-Dec-09 20:20 082 4 gusting 9 25.6
2016-Dec-09 20:05 073 5 gusting 12 25.6
2016-Dec-09 19:50 079 6 gusting 11 25.6
2016-Dec-09 19:35 084 6 gusting 9 25.6
2016-Dec-09 19:20 092 3 gusting 7 25.0
2016-Dec-09 19:05 120 5 gusting 9 25.0
2016-Dec-09 18:50 123 5 gusting 8 25.0
2016-Dec-09 18:35 113 6 gusting 7 25.0
2016-Dec-09 18:20 095 3 gusting 7 25.0
2016-Dec-09 18:05 153 3 gusting 8 25.0
2016-Dec-09 17:50 120 3 gusting 8 24.4
2016-Dec-09 17:35 120 5 gusting 10 24.4
2016-Dec-09 17:21 127 6 gusting 12 24.4
2016-Dec-09 17:05 113 6 gusting 13 24.4
2016-Dec-09 16:50 116 7 gusting 15 25.0
2016-Dec-09 16:35 097 7 gusting 12 25.0
2016-Dec-09 16:20 114 6 gusting 14 25.0
2016-Dec-09 16:05 087 1 gusting 13 25.6
2016-Dec-09 15:50 120 0 gusting 9 25.6
2016-Dec-09 15:35 110 25.6
2016-Dec-09 15:20 105 25.0
2016-Dec-09 15:05 109 25.6
2016-Dec-09 14:50 106 26.1
2016-Dec-09 14:35 108 25.6
2016-Dec-09 14:20 104 25.6
2016-Dec-09 14:05 113 25.0
2016-Dec-09 13:50 101 0 gusting 8 25.0
2016-Dec-09 13:35 066 1 gusting 7 24.4
2016-Dec-09 13:20 082 5 gusting 12 24.4
2016-Dec-09 13:04 080 9 gusting 12 24.4
2016-Dec-09 12:50 120 4 gusting 12 24.4
2016-Dec-09 12:34 101 5 gusting 7 23.3
2016-Dec-09 12:20 082 4 gusting 9 22.8
2016-Dec-09 12:05 113 4 gusting 12 22.8
2016-Dec-09 11:49 101 7 gusting 14 23.3
2016-Dec-09 11:34 095 3 gusting 6 23.3
2016-Dec-09 11:19 112 3 gusting 6 23.3
2016-Dec-09 11:04 105 2 gusting 5 22.8
2016-Dec-09 10:49 098 3 gusting 9 22.2
2016-Dec-09 10:34 080 13 gusting 23 22.2
2016-Dec-09 10:19 098 8 gusting 14 26.1
2016-Dec-09 10:04 042 5 gusting 8 26.1
2016-Dec-09 09:49 069 4 gusting 8 25.6
2016-Dec-09 09:34 039 2 gusting 9 25.6
2016-Dec-09 09:19 359 4 gusting 10 25.6
2016-Dec-09 09:04 007 3 gusting 7 25.6
2016-Dec-09 08:49 041 3 gusting 6 25.6
2016-Dec-09 08:34 054 4 gusting 10 25.0
2016-Dec-09 08:19 034 4 gusting 8 25.6
2016-Dec-09 08:04 073 4 gusting 6 25.6
2016-Dec-09 07:50 084 3 gusting 8 25.6
2016-Dec-09 07:34 014 4 gusting 8 25.6
2016-Dec-09 07:19 074 2 gusting 6 25.6
2016-Dec-09 07:04 065 1 gusting 4 25.6
2016-Dec-09 06:49 076 4 gusting 7 25.6
2016-Dec-09 06:34 338 4 gusting 11 26.1
2016-Dec-09 06:19 071 3 gusting 6 26.7
2016-Dec-09 06:03 075 1 gusting 5 26.7
2016-Dec-09 05:49 063 4 gusting 8 26.7
2016-Dec-09 05:33 084 3 gusting 6 26.7
2016-Dec-09 05:18 103 1 gusting 4 26.7
2016-Dec-09 05:02 037 5 gusting 9 26.7
2016-Dec-09 04:47 082 2 gusting 7 26.7
2016-Dec-09 04:32 097 3 gusting 7 27.2
2016-Dec-09 04:17 086 3 gusting 10 27.2
2016-Dec-09 04:02 089 5 gusting 8 27.2
2016-Dec-09 03:46 096 4 gusting 10 27.2
2016-Dec-09 03:31 082 6 gusting 12 27.2
2016-Dec-09 03:16 101 4 gusting 6 27.2
2016-Dec-09 03:01 117 5 gusting 9 27.2
2016-Dec-09 02:46 077 2 gusting 7 27.2
2016-Dec-09 02:31 072 4 gusting 7 27.2
2016-Dec-09 02:16 053 5 gusting 11 27.2
2016-Dec-09 02:01 062 5 gusting 13 27.2
2016-Dec-09 01:46 360 6 gusting 14 27.8
2016-Dec-09 01:31 063 6 gusting 14 27.8
2016-Dec-09 01:16 066 7 gusting 17 27.8
2016-Dec-09 01:01 058 5 gusting 16 27.8
2016-Dec-09 00:44 103 5 gusting 13 27.8
2016-Dec-09 00:29 060 6 gusting 13 27.8
2016-Dec-09 00:14 066 5 gusting 11 27.8
2016-Dec-09 00:01 074 5 gusting 11 27.8
2016-Dec-08 23:44 062 5 gusting 11 27.8
2016-Dec-08 23:28 053 7 gusting 11 27.8
2016-Dec-08 23:13 077 4 gusting 9 27.8
2016-Dec-08 22:58 072 8 gusting 14 27.8
2016-Dec-08 22:43 011 6 gusting 12 28.3
2016-Dec-08 22:27 120 4 gusting 13 27.8
2016-Dec-08 22:12 094 3 gusting 7 28.3
2016-Dec-08 21:57 068 4 gusting 11 28.3
2016-Dec-08 21:42 089 4 gusting 8 28.3
2016-Dec-08 21:27 084 6 gusting 10 28.9
2016-Dec-08 21:12 096 6 gusting 10 28.9
2016-Dec-08 20:57 077 6 gusting 16 28.9
2016-Dec-08 20:42 065 7 gusting 13 28.9
2016-Dec-08 20:27 077 7 gusting 14 29.4
2016-Dec-08 20:12 060 7 gusting 13 29.4
2016-Dec-08 19:57 038 10 gusting 15 29.4
2016-Dec-08 19:42 046 6 gusting 14 29.4
2016-Dec-08 19:27 030 5 gusting 13 30.0
2016-Dec-08 19:12 079 6 gusting 14 29.4
2016-Dec-08 18:57 069 7 gusting 13 29.4
2016-Dec-08 18:42 079 6 gusting 13 29.4
2016-Dec-08 18:27 059 6 gusting 14 30.0
2016-Dec-08 18:12 093 7 gusting 14 30.0
2016-Dec-08 17:57 077 6 gusting 12 30.0
2016-Dec-08 17:42 063 6 gusting 14 30.0
2016-Dec-08 17:27 053 7 gusting 13 30.0
2016-Dec-08 17:12 082 6 gusting 14 29.4
2016-Dec-08 16:57 121 9 gusting 13 30.0
2016-Dec-08 16:42 064 8 gusting 13 30.0
2016-Dec-08 16:28 068 7 gusting 13 30.0
2016-Dec-08 16:12 082 6 gusting 14 30.0
2016-Dec-08 15:57 096 5 gusting 13 30.0
2016-Dec-08 15:42 105 8 gusting 13 29.4
2016-Dec-08 15:27 098 5 gusting 13 30.0
2016-Dec-08 15:12 110 6 gusting 14 30.0
2016-Dec-08 14:57 065 6 gusting 13 29.4
2016-Dec-08 14:42 089 8 gusting 14 29.4
2016-Dec-08 14:27 082 6 gusting 12 28.9
2016-Dec-08 14:12 096 8 gusting 14 29.4
2016-Dec-08 13:57 101 8 gusting 14 29.4
2016-Dec-08 13:42 057 8 gusting 13 28.9
2016-Dec-08 13:27 082 6 gusting 13 28.9
2016-Dec-08 13:12 078 6 gusting 14 28.9
2016-Dec-08 12:56 066 4 gusting 15 28.3
2016-Dec-08 12:42 058 6 gusting 13 28.3
2016-Dec-08 12:26 083 6 gusting 13 27.8
2016-Dec-08 12:11 077 6 gusting 10 27.2
2016-Dec-08 11:56 086 5 gusting 9 27.2
2016-Dec-08 11:41 084 6 gusting 10 26.7
2016-Dec-08 11:26 117 4 gusting 9 26.1
2016-Dec-08 11:11 081 4 gusting 11 26.7
2016-Dec-08 10:56 082 4 gusting 10 27.2
2016-Dec-08 10:41 081 4 gusting 8 26.7
2016-Dec-08 10:26 071 5 gusting 11 27.2
2016-Dec-08 10:11 056 5 gusting 10 26.7
2016-Dec-08 09:56 071 7 gusting 11 26.7
2016-Dec-08 09:41 123 6 gusting 10 27.2
2016-Dec-08 09:26 073 6 gusting 10 27.2
2016-Dec-08 09:11 072 6 gusting 10 27.2
2016-Dec-08 08:56 084 6 gusting 11 27.2
2016-Dec-08 08:41 148 3 gusting 9 27.2
2016-Dec-08 08:26 073 5 gusting 9 27.2
2016-Dec-08 08:11 034 5 gusting 11 27.2